TimeEDT,TemperatureF,Dew PointF,Humidity,Sea Level PressureIn,VisibilityMPH,Wind Direction,Wind SpeedMPH,Gust SpeedMPH,PrecipitationIn,Events,Conditions,WindDirDegrees,DateUTC
12:53 AM,73.0,70.0,90,29.86,10.0,East,4.6,-,N/A,,Overcast,100,2012-10-18 04:53:00
1:53 AM,73.0,70.0,90,29.86,10.0,East,4.6,-,N/A,,Overcast,100,2012-10-18 05:53:00
2:53 AM,72.0,70.0,93,29.84,10.0,ESE,4.6,-,N/A,,Scattered Clouds,110,2012-10-18 06:53:00
3:53 AM,73.0,70.0,90,29.82,10.0,SE,4.6,-,N/A,,Overcast,130,2012-10-18 07:53:00
4:53 AM,72.0,70.0,93,29.82,10.0,ESE,3.5,-,0.01,,Scattered Clouds,120,2012-10-18 08:53:00
5:36 AM,71.6,69.8,94,29.82,10.0,Calm,Calm,-,N/A,,Mostly Cloudy,0,2012-10-18 09:36:00
5:45 AM,71.6,69.8,94,29.82,10.0,Calm,Calm,-,N/A,,Mostly Cloudy,0,2012-10-18 09:45:00
5:53 AM,72.0,70.0,93,29.83,10.0,Calm,Calm,-,N/A,,Mostly Cloudy,0,2012-10-18 09:53:00
6:04 AM,71.6,69.8,94,29.83,10.0,Calm,Calm,-,N/A,,Overcast,0,2012-10-18 10:04:00
6:37 AM,73.4,71.6,94,29.84,10.0,SE,3.5,-,N/A,,Overcast,130,2012-10-18 10:37:00
6:51 AM,73.4,71.6,94,29.84,10.0,Calm,Calm,-,0.00,,Overcast,0,2012-10-18 10:51:00
6:53 AM,73.0,71.1,93,29.85,10.0,Calm,Calm,-,0.00,,Overcast,0,2012-10-18 10:53:00
7:53 AM,73.0,71.1,93,29.86,10.0,Calm,Calm,-,N/A,,Clear,0,2012-10-18 11:53:00
8:53 AM,73.9,72.0,93,29.88,10.0,SE,3.5,-,N/A,,Overcast,130,2012-10-18 12:53:00
9:53 AM,75.9,73.0,91,29.89,10.0,Calm,Calm,-,N/A,,Partly Cloudy,0,2012-10-18 13:53:00
10:53 AM,80.1,73.0,79,29.89,10.0,Variable,3.5,-,N/A,,Overcast,0,2012-10-18 14:53:00
11:53 AM,84.0,72.0,67,29.88,10.0,South,3.5,-,N/A,,Clear,190,2012-10-18 15:53:00
12:51 PM,84.2,71.6,66,29.87,10.0,SW,8.1,-,N/A,,Mostly Cloudy,230,2012-10-18 16:51:00
12:53 PM,84.9,72.0,65,29.87,10.0,SSW,6.9,-,N/A,,Mostly Cloudy,200,2012-10-18 16:53:00
1:00 PM,84.2,71.6,66,29.86,10.0,South,5.8,-,N/A,,Mostly Cloudy,180,2012-10-18 17:00:00
1:53 PM,84.9,72.0,65,29.84,10.0,Variable,6.9,-,N/A,,Mostly Cloudy,0,2012-10-18 17:53:00
2:04 PM,84.2,73.4,70,29.82,10.0,WSW,8.1,-,N/A,,Mostly Cloudy,250,2012-10-18 18:04:00
2:35 PM,84.2,71.6,66,29.82,10.0,SW,6.9,-,N/A,,Scattered Clouds,230,2012-10-18 18:35:00
2:53 PM,84.9,72.0,65,29.82,10.0,SSW,9.2,-,N/A,,Partly Cloudy,210,2012-10-18 18:53:00
3:53 PM,86.0,73.0,65,29.81,10.0,SSW,6.9,-,N/A,,Partly Cloudy,210,2012-10-18 19:53:00
4:53 PM,84.9,72.0,65,29.81,10.0,South,5.8,-,N/A,,Clear,190,2012-10-18 20:53:00
5:53 PM,82.9,73.0,72,29.82,10.0,SW,8.1,-,N/A,,Partly Cloudy,230,2012-10-18 21:53:00
6:53 PM,82.0,73.0,74,29.83,10.0,SW,4.6,-,N/A,,Clear,220,2012-10-18 22:53:00
7:53 PM,80.1,75.0,85,29.85,10.0,Calm,Calm,-,N/A,,Clear,0,2012-10-18 23:53:00
8:53 PM,79.0,75.0,88,29.86,10.0,WSW,3.5,-,N/A,,Clear,250,2012-10-19 00:53:00
10:53 PM,79.0,75.0,88,29.88,10.0,Calm,Calm,-,N/A,,Clear,0,2012-10-19 02:53:00
11:53 PM,78.1,73.9,87,29.88,10.0,Calm,Calm,-,N/A,,Clear,0,2012-10-19 03:53:00